This is the latest recevied weather packets stored in our database for station/object DG3GAI-6. If no packets are shown the sender has not sent any weather packets the latest 10 day(s).
| Time | Temp. | Humidity | Pressure | Rain* | Wind** | Luminosity | Snow |
|---|---|---|---|---|---|---|---|
| 1777632673 | 12.22° C | 43% | 1027 hPa | - | - | - | - |
| 1777630865 | 11.67° C | 43% | 1028 hPa | - | - | - | - |
| 1777629058 | 11.11° C | 43% | 1028 hPa | - | - | - | - |
| 1777627251 | 10.56° C | 44% | 1028 hPa | - | - | - | - |
| 1777625444 | 10° C | 42% | 1027 hPa | - | - | - | - |
| 1777623636 | 9.44° C | 42% | 1028 hPa | - | - | - | - |
| 1777621829 | 8.89° C | 42% | 1027 hPa | - | - | - | - |
| 1777620022 | 8.33° C | 41% | 1027 hPa | - | - | - | - |
| 1777618215 | 7.78° C | 40% | 1027 hPa | - | - | - | - |
| 1777616407 | 7.22° C | 46% | 1027 hPa | - | - | - | - |
| 1777614600 | 6.11° C | 47% | 1027 hPa | - | - | - | - |
| 1777612793 | 5.56° C | 47% | 1027 hPa | - | - | - | - |
| 1777610986 | 5° C | 46% | 1027 hPa | - | - | - | - |
| 1777609178 | 5° C | 45% | 1027 hPa | - | - | - | - |
| 1777607371 | 5.56° C | 44% | 1027 hPa | - | - | - | - |
| 1777605564 | 5.56° C | 43% | 1027 hPa | - | - | - | - |
| 1777603756 | 6.11° C | 42% | 1027 hPa | - | - | - | - |
| 1777601949 | 6.11° C | 42% | 1027 hPa | - | - | - | - |
| 1777600142 | 6.67° C | 41% | 1027 hPa | - | - | - | - |
| 1777598335 | 7.22° C | 41% | 1027 hPa | - | - | - | - |
| 1777596527 | 7.22° C | 41% | 1027 hPa | - | - | - | - |
| 1777594720 | 7.78° C | 40% | 1027 hPa | - | - | - | - |
| 1777592913 | 8.33° C | 39% | 1027 hPa | - | - | - | - |
| 1777591106 | 9.44° C | 35% | 1027 hPa | - | - | - | - |
| 1777589298 | 9.44° C | 32% | 1027 hPa | - | - | - | - |
* Rain since midnight (hover to see other rain measurements)
** Current wind speed in m/s (hover to see current wind gust speed)